Location: Mexico
(19.4000°N, 99.1500°W)
Time: 11:38:30
(UTC-06:00)

ISS - Pass Details

Date: 16 January 2020
Orbit: 415 x 422 km, 51.6° (Epoch: 23 January)

Event Time Altitude Azimuth Distance (km) Brightness Sun altitude
Exits shadow 05:42:55 39° 184° (S) 634 -2.8 -21.0°
Drops below altitude 10° 05:45:24 - 155° (SSE) 1,518 -0.4 -20.5°
Sets 05:47:25 0° 151° (SSE) 2,337 0.7 -20.0°
